GFSMA_500_spd_000.txt.gz
Wind_Speed
9 9 10 10 10 12 11 11 11 12 12 13 12 15 17 13 11 14 13 15 17 17 16 15 15 11 12 10 7 5 4 6 5 6 2 1 1 2 3 4 4 3 2
10 10 11 12 11 11 12 11 11 12 11 11 12 12 13 16 14 13 15 15 18 20 18 17 17 15 14 12 11 9 7 7 8 7 6 2 1 1 3 4 4 4 3
11 11 13 14 13 14 15 14 12 12 13 11 11 10 10 13 15 15 17 17 18 19 23 21 20 19 18 16 14 14 11 10 10 9 8 6 4 3 2 3 3 3 3
11 11 11 13 15 16 16 15 14 14 14 14 14 14 13 12 13 17 16 22 20 19 21 24 25 23 22 21 19 17 16 14 13 13 11 9 8 7 6 5 4 3 4
11 13 14 15 15 16 17 18 17 16 17 17 16 17 17 18 17 16 17 19 25 24 22 23 24 27 26 26 24 23 21 19 17 16 16 14 11 9 9 9 8 7 6
13 14 13 14 15 16 17 18 19 19 19 19 21 23 22 19 20 20 19 19 21 24 28 28 26 26 31 30 29 28 26 24 22 20 19 17 15 13 11 11 11 10 9
12 13 14 14 15 16 17 18 19 21 20 20 21 24 24 24 22 21 21 21 22 26 26 27 31 30 31 33 34 33 31 30 28 25 23 20 18 16 15 13 13 12 11
12 13 13 15 16 17 19 20 22 23 24 21 22 23 25 24 23 22 21 21 24 26 29 32 31 33 34 35 35 39 36 33 33 31 29 26 22 20 18 17 16 15 13
17 17 18 18 19 20 22 22 23 23 26 26 25 24 24 25 25 25 23 20 21 26 31 33 33 33 35 36 37 37 40 39 38 36 35 33 30 25 22 21 20 19 17
21 22 22 23 23 24 25 26 26 25 25 28 29 29 28 26 23 25 27 25 23 24 26 32 34 35 38 38 40 40 40 43 44 41 38 38 36 33 29 25 24 22 21
21 22 23 24 25 27 29 30 30 28 28 29 32 33 33 31 28 25 25 29 29 26 25 29 31 36 38 39 41 43 44 45 45 48 45 41 40 38 36 32 28 26 24
25 26 26 26 27 28 30 31 31 31 30 31 34 35 35 34 34 30 28 29 28 32 31 30 31 32 37 40 43 43 46 48 46 46 50 47 44 42 40 38 34 30 28
26 26 26 25 26 28 30 31 33 33 33 35 37 38 38 37 36 36 34 31 28 29 31 35 36 36 38 35 41 47 48 50 49 48 47 51 50 46 45 42 40 36 33
28 27 26 26 26 29 32 35 36 35 36 38 39 40 39 40 41 40 40 37 34 33 34 36 40 41 42 43 39 45 49 51 51 55 51 48 53 52 49 47 44 42 39
28 26 25 26 29 31 34 34 35 37 38 39 41 40 41 42 42 42 43 42 38 34 32 38 39 45 46 47 46 45 46 51 55 52 55 55 51 54 53 50 49 45 43
27 26 26 27 31 34 37 37 38 40 41 40 40 40 39 41 43 45 46 46 46 42 37 40 42 43 46 48 50 50 47 51 53 54 52 52 52 52 54 54 53 50 46
28 25 27 29 33 37 37 38 40 41 41 44 42 43 43 42 46 49 47 49 49 43 33 30 35 39 41 46 47 54 53 50 54 55 58 58 51 56 53 53 55 53 50
30 30 31 33 35 39 41 41 42 44 44 43 40 47 48 47 47 50 48 46 45 41 38 35 36 39 39 42 44 49 54 54 51 55 52 58 57 52 53 51 50 52 52
34 34 34 35 39 41 42 44 45 48 49 45 46 48 49 50 49 49 47 43 40 37 38 36 37 37 41 44 43 45 50 57 51 52 57 53 58 54 52 52 50 47 48
35 36 36 38 40 42 43 46 47 48 46 45 47 49 48 51 52 48 46 41 38 37 38 39 36 39 42 47 44 48 48 54 53 52 55 58 57 57 60 54 52 48 43
38 38 38 40 42 44 45 47 47 48 45 46 47 47 47 50 48 48 42 39 37 36 40 41 42 42 44 42 44 47 47 52 50 47 52 56 53 56 51 48 54 48 44
40 41 41 41 42 44 46 48 47 45 44 46 45 42 47 46 40 34 34 33 34 38 42 44 47 51 43 39 42 45 46 47 48 48 51 51 56 57 48 40 39 49 44
42 42 46 48 42 46 50 47 45 42 41 41 41 42 46 40 38 39 34 36 36 37 42 48 50 44 40 31 37 42 44 46 46 49 51 50 56 52 50 47 44 49 44
39 43 48 49 35 46 47 43 43 40 38 41 41 42 45 35 39 37 38 34 35 36 41 46 49 42 29 19 29 38 39 43 42 46 50 50 52 48 51 54 44 40 49
36 37 45 43 48 50 41 40 39 39 41 43 43 42 41 39 38 32 30 30 29 37 39 46 44 37 39 32 26 32 38 39 37 41 49 45 48 48 53 52 57 54 49
34 42 44 52 42 46 38 34 40 40 43 42 43 46 40 33 34 31 28 26 27 35 39 38 37 36 40 40 27 30 29 42 42 45 48 45 47 51 48 44 48 52 52

GFSMA_500_spd_006.txt.gz
Wind_Speed
7 8 9 11 13 13 11 11 12 11 11 11 11 10 8 10 12 13 11 11 11 13 17 18 18 16 17 14 11 10 9 10 10 10 7 6 5 6 7 6 5 4 4
7 7 8 10 12 13 13 12 12 12 11 11 12 14 13 12 11 14 13 13 14 14 16 19 19 18 18 16 15 13 12 12 12 13 11 8 7 6 7 7 7 6 5
6 5 6 7 9 10 11 11 13 13 13 13 13 13 15 16 13 11 14 16 16 15 17 19 22 21 20 18 16 16 15 14 13 14 13 12 10 7 7 8 7 8 7
6 8 7 7 8 10 11 11 12 13 15 15 14 14 14 16 16 15 12 14 16 19 17 20 21 25 24 21 20 19 18 17 16 16 15 15 14 11 9 9 7 7 8
6 8 8 9 10 10 11 12 13 14 16 18 18 16 16 17 17 17 15 14 14 16 18 20 23 23 25 26 24 22 22 20 20 19 18 18 17 16 13 12 11 9 9
9 9 10 11 12 12 13 14 15 15 16 19 20 19 18 18 17 17 16 16 16 14 15 19 22 26 25 26 28 27 24 25 23 23 22 20 20 19 17 15 14 13 12
10 12 12 13 14 14 15 15 16 15 16 19 21 20 20 19 19 19 18 16 16 17 16 15 19 23 28 30 31 29 29 29 28 27 26 25 23 22 21 18 17 16 15
13 14 15 16 17 17 17 17 16 14 15 17 19 23 21 20 20 22 21 20 18 16 17 18 18 20 26 30 32 34 32 31 32 31 30 29 27 25 23 23 21 19 18
16 16 18 18 18 18 17 18 18 19 18 18 18 20 23 23 23 21 21 22 21 20 18 18 21 22 24 28 33 34 34 35 33 35 35 34 32 30 27 25 24 23 21
21 20 19 18 17 18 19 19 20 20 20 21 21 21 19 21 25 27 24 22 22 21 21 21 22 26 26 27 30 34 36 36 38 39 38 39 37 36 34 31 28 25 24
25 23 21 19 18 18 18 19 20 20 21 23 25 24 23 22 22 25 27 26 23 20 23 25 26 27 30 30 30 33 34 38 40 41 43 41 42 41 40 38 34 31 27
26 23 20 19 19 19 18 20 22 24 24 25 27 28 28 27 24 22 24 26 25 24 24 26 26 27 29 33 34 34 36 37 40 43 43 45 45 46 46 43 40 38 35
24 23 21 19 21 20 20 22 24 26 28 28 30 30 31 31 30 27 23 22 26 28 29 32 33 33 34 33 35 36 39 39 41 41 44 46 48 49 49 49 46 43 41
25 23 21 23 23 24 24 24 26 27 30 31 32 32 33 33 32 32 30 28 29 29 32 36 40 37 36 38 37 38 40 41 45 45 44 45 48 52 52 51 51 48 45
26 24 23 22 24 26 28 27 28 29 31 33 35 35 36 38 38 38 39 38 41 40 33 38 39 42 39 39 41 41 42 43 43 47 49 48 47 51 53 55 53 53 49
23 23 25 26 27 29 30 29 27 28 31 34 34 36 38 38 40 42 46 44 44 43 37 37 40 41 41 42 44 44 43 45 48 46 48 52 52 51 54 55 57 54 54
25 25 27 28 28 30 30 28 26 28 32 34 35 34 37 39 44 42 46 45 45 45 41 38 41 44 41 43 43 44 45 44 43 45 48 51 55 56 54 56 57 57 56
31 29 29 29 31 30 30 29 28 31 34 37 37 34 40 43 44 42 49 45 43 45 47 48 44 41 41 41 41 42 45 47 46 46 47 47 53 57 60 57 59 59 59
33 35 32 32 34 33 33 30 30 33 33 34 36 36 45 41 42 47 44 42 44 47 50 51 44 35 36 39 39 40 41 44 47 49 50 51 49 56 60 62 59 61 60
39 38 37 37 38 38 38 33 32 31 28 35 30 42 45 42 42 42 43 45 46 47 47 45 42 40 39 39 39 39 40 44 46 50 52 53 53 52 59 62 63 61 62
41 42 38 40 41 43 41 35 33 34 40 45 44 48 40 44 43 46 47 48 48 46 48 45 46 41 38 41 41 40 39 40 44 53 57 54 52 52 53 61 64 64 63
40 41 36 44 45 46 45 37 35 38 36 37 43 44 42 45 46 47 47 48 49 48 47 45 41 41 36 36 38 40 39 39 40 49 53 51 57 51 52 56 63 67 63
41 42 42 45 52 50 47 41 35 41 36 46 47 46 46 47 50 49 49 48 45 45 41 39 43 38 34 34 37 41 42 40 40 46 51 49 56 53 52 55 60 64 65
34 40 40 43 53 52 50 39 37 42 40 51 48 47 48 48 49 47 49 48 44 40 39 41 36 35 33 34 38 39 40 37 35 42 45 54 52 48 53 54 57 63 67
37 41 34 44 48 46 53 45 42 47 45 47 44 46 47 47 48 49 46 44 40 36 35 32 33 35 34 37 39 45 48 36 32 35 42 52 46 41 46 50 55 60 64
46 42 43 44 43 49 42 41 43 42 40 43 44 46 47 47 47 47 43 41 38 34 31 31 32 34 36 38 43 47 53 42 38 34 32 44 42 41 45 44 52 56 61

GFSMA_500_spd_009.txt.gz
Wind_Speed
6 9 11 12 13 13 13 14 14 13 13 13 12 11 11 10 11 10 9 11 12 14 15 18 18 19 20 16 14 11 10 9 10 10 6 5 5 7 7 6 5 5 5
6 7 8 10 10 11 12 12 12 12 12 13 12 12 12 11 10 11 10 9 9 13 14 15 18 19 18 20 18 16 13 12 12 12 12 8 7 6 8 8 7 6 6
4 6 6 7 9 11 10 10 10 11 12 12 13 13 13 13 13 12 11 12 12 12 13 15 16 19 21 19 20 19 17 15 14 13 14 14 11 8 8 9 8 8 7
6 6 6 7 8 9 10 10 11 12 14 14 13 14 14 14 15 14 13 12 12 12 13 15 17 18 20 23 20 22 19 19 17 15 15 15 15 13 10 10 10 9 9
9 11 11 11 10 10 10 10 10 11 13 14 14 14 15 16 15 15 14 13 12 12 12 12 16 17 20 22 22 25 24 21 21 19 17 17 17 16 14 13 12 10 9
9 10 11 12 13 13 13 13 13 14 15 16 15 15 15 14 15 14 13 13 13 13 12 11 12 15 18 22 26 27 26 27 24 22 21 20 19 19 18 17 15 14 12
9 9 11 13 14 15 15 14 14 14 16 17 17 16 15 16 15 16 17 15 14 14 14 12 11 12 15 19 23 28 30 24 28 27 25 24 23 22 21 19 18 17 16
12 14 14 15 16 16 15 14 13 13 15 16 18 18 17 16 15 16 16 18 18 16 15 14 12 12 15 17 20 26 29 29 29 30 28 27 26 25 25 23 23 21 19
15 17 18 18 17 16 15 13 13 14 15 14 16 19 20 18 16 16 17 18 19 18 18 16 16 15 16 18 22 25 28 30 30 30 31 34 30 30 29 28 26 24 22
18 18 20 20 17 15 14 12 12 14 14 15 16 17 19 21 21 19 19 18 18 20 20 20 19 20 19 20 22 25 28 30 32 33 32 34 36 35 34 33 31 28 25
18 18 19 19 17 16 16 15 13 13 14 16 18 19 19 19 21 23 23 21 21 19 19 20 22 24 25 25 25 26 27 31 32 34 35 36 38 39 40 38 37 34 31
18 18 20 21 18 18 17 16 16 16 17 19 20 21 23 20 20 21 24 26 26 23 24 26 26 29 30 30 31 31 31 31 34 35 36 39 40 41 43 44 43 41 38
19 19 20 20 18 19 17 17 19 20 21 21 23 24 25 25 25 23 23 24 25 29 33 35 37 36 37 38 34 34 36 37 36 37 38 40 42 44 46 47 47 46 44
24 21 19 19 20 21 20 20 22 25 25 23 24 26 27 27 28 28 30 30 29 28 33 38 39 36 36 37 39 38 38 40 39 40 41 41 43 45 48 50 50 50 50
23 24 23 22 23 24 23 23 26 27 26 24 25 27 29 29 29 29 33 34 36 33 31 37 39 42 43 45 45 42 43 42 43 42 44 45 45 47 48 50 52 53 53
22 22 22 24 25 25 24 25 27 28 27 25 27 29 29 33 31 34 33 33 34 37 40 40 37 42 45 47 48 47 44 46 46 47 47 48 49 49 51 52 53 55 56
28 23 22 23 25 25 26 27 28 29 29 27 26 29 29 29 28 33 38 34 35 37 39 39 43 45 48 52 47 46 46 47 49 49 50 50 51 53 53 54 55 56 59
27 27 28 28 28 27 29 29 30 31 31 27 27 23 23 24 31 36 35 37 39 41 43 46 47 47 48 49 47 43 41 41 44 48 51 51 52 52 55 56 57 58 60
34 27 30 32 33 33 31 32 35 34 35 31 31 29 34 38 39 41 38 37 39 42 47 51 50 49 47 48 48 46 44 42 44 46 48 49 51 51 53 53 58 59 61
48 31 29 34 36 33 32 35 35 35 38 35 32 32 34 34 42 42 40 42 42 46 52 51 51 50 47 49 50 49 45 45 46 45 46 48 50 50 54 55 53 58 62
47 36 23 32 37 31 37 36 36 37 37 35 32 35 40 41 48 50 44 44 44 48 52 49 48 47 48 49 51 47 42 40 41 46 45 47 50 52 55 56 54 53 59
60 26 33 30 32 29 37 41 40 40 37 37 30 41 41 42 51 51 45 44 46 50 49 47 46 46 49 47 44 40 38 36 33 38 43 46 55 52 53 54 52 54 56
49 44 46 40 29 33 40 38 40 34 37 41 40 40 39 43 49 46 45 45 48 50 48 46 45 47 49 37 32 34 36 35 35 40 45 45 58 55 54 51 48 52 55
47 38 35 29 34 41 38 33 36 29 37 42 36 33 39 38 40 45 47 48 51 50 50 48 45 46 43 35 35 36 36 37 39 44 51 47 53 55 54 52 49 47 53
39 42 40 35 38 43 30 33 37 25 28 39 35 32 33 37 43 44 44 47 49 48 49 46 45 46 39 35 38 36 37 41 41 46 47 40 49 52 52 50 50 49 51
50 54 46 34 34 37 30 24 27 24 37 38 41 42 38 42 42 43 44 47 46 48 44 47 46 43 40 39 39 41 41 42 47 42 37 38 40 43 45 47 47 47 52

GFSMA_500_spd_015.txt.gz
Wind_Speed
9 8 8 9 9 9 10 10 10 10 10 10 10 10 10 11 11 11 10 9 9 7 9 11 10 12 12 16 18 19 16 14 11 12 11 7 5 5 4 5 4 3 3
7 4 5 5 6 6 6 6 8 9 10 11 11 12 10 10 10 10 10 10 9 8 7 9 10 11 11 12 26 25 23 17 14 12 13 11 7 6 6 6 7 7 5
4 2 3 3 4 4 5 6 8 9 9 11 12 13 13 12 10 10 9 8 10 11 10 8 9 10 12 13 14 16 18 20 17 15 14 15 13 10 8 8 8 8 9
2 3 3 4 5 7 8 9 9 10 12 13 13 13 14 13 12 12 11 9 8 9 10 10 9 9 10 12 13 14 13 18 20 19 18 17 16 16 12 10 9 8 8
2 4 5 7 9 10 10 11 11 12 12 13 14 14 13 13 14 13 12 12 9 7 8 11 10 10 9 10 10 11 13 13 12 24 23 21 19 18 17 14 12 10 9
3 4 6 8 10 13 14 13 14 14 13 13 13 14 14 13 13 13 12 12 12 11 8 9 12 13 11 10 9 9 9 12 13 16 23 25 24 21 19 18 16 14 12
9 9 11 14 14 14 16 15 14 13 12 13 13 13 13 13 13 13 13 13 14 14 13 11 11 14 13 11 11 11 11 10 11 14 14 15 30 25 23 22 21 19 17
12 17 17 17 17 16 15 15 14 13 13 14 14 14 13 12 12 13 12 14 14 14 13 13 15 14 14 16 14 13 12 13 13 14 15 17 20 29 26 25 25 24 22
18 21 17 17 16 15 14 14 13 14 15 15 16 15 15 14 13 13 14 15 15 15 13 12 15 15 13 15 18 17 17 17 16 16 17 17 20 22 28 30 29 28 27
22 18 17 16 16 15 14 13 13 15 15 16 18 17 17 16 16 14 13 14 15 17 15 13 16 17 16 16 16 19 20 22 22 21 21 21 20 22 28 29 36 33 31
18 15 15 15 16 17 16 15 14 15 17 18 19 20 20 21 19 19 18 14 14 16 16 16 16 17 19 17 19 22 23 24 26 26 26 25 26 25 26 29 31 37 35
15 14 15 16 17 19 18 17 16 17 17 18 20 21 23 24 24 22 22 18 17 13 16 15 18 21 22 24 24 25 26 27 27 28 27 26 27 29 30 30 32 36 40
16 17 18 19 20 19 19 21 20 19 18 20 22 21 21 23 24 25 25 23 20 20 18 19 20 23 25 26 24 26 26 28 34 33 31 31 31 32 34 35 36 36 40
17 18 19 22 26 26 23 22 23 23 22 22 24 24 23 22 23 25 27 27 26 27 25 23 26 26 28 28 28 27 27 29 36 42 45 43 38 35 37 38 41 42 41
17 20 21 26 30 31 32 28 24 25 24 23 24 25 25 24 24 26 28 26 28 30 28 29 26 29 28 32 31 31 31 32 38 45 48 49 46 39 39 42 45 47 47
19 22 19 30 30 28 29 32 33 31 28 25 26 24 25 26 26 26 27 26 25 22 29 32 31 33 34 32 35 37 39 41 42 49 52 52 50 46 39 47 49 50 51
18 18 26 33 34 38 35 31 33 34 29 30 29 27 27 27 27 26 28 31 30 32 31 31 33 35 35 36 38 43 44 46 49 54 54 52 51 46 42 45 55 55 53
17 28 29 32 36 40 44 38 41 35 31 29 34 33 33 31 30 30 32 34 37 37 36 33 37 37 36 37 40 39 45 49 52 55 55 49 46 44 42 44 51 53 56
27 28 37 39 41 45 47 40 33 40 37 29 30 34 34 36 35 35 38 36 38 39 41 46 39 39 38 41 46 49 48 52 56 55 52 47 45 45 47 49 50 52 49
31 35 38 39 41 45 45 32 31 25 32 36 35 36 36 40 40 37 32 32 34 36 40 41 38 40 49 56 58 53 52 56 57 50 47 46 46 44 47 49 50 52 53
35 39 43 46 47 47 38 36 35 27 42 31 35 35 39 42 42 34 35 34 32 36 39 39 44 49 54 56 53 53 53 55 50 45 46 47 45 42 40 41 45 48 51
39 43 47 48 52 46 42 42 42 39 41 33 35 38 43 39 37 31 31 34 33 36 36 41 47 50 52 53 54 56 57 56 49 46 47 42 43 38 37 38 39 41 46
43 42 46 46 48 47 42 42 45 43 44 42 40 40 36 35 32 25 27 32 38 44 44 46 48 51 53 52 54 54 52 51 48 45 46 40 43 40 39 38 40 41 45
45 47 51 51 48 50 48 45 43 41 46 43 32 37 41 37 34 37 38 32 37 44 48 49 48 52 53 54 56 55 52 50 47 46 47 42 43 40 42 41 40 46 52
49 52 53 51 52 52 47 45 41 37 37 28 29 44 39 31 29 35 33 41 43 46 47 52 53 54 56 56 55 55 50 47 42 41 37 34 37 38 40 39 45 56 62
51 49 49 58 57 54 42 42 34 35 37 34 34 33 36 34 36 36 39 40 43 46 50 55 54 55 54 53 47 44 42 40 40 35 35 33 36 38 42 43 48 51 50